Location: Fluertsh�userhof
(48.7537°N, 10.3850°E)
Time: 22:36:14
(UTC+00:00)

Cosmos 1975 - Pass Details

Date: 18 September 2020
Orbit: 540 x 563 km, 82.5° (Epoch: 30 October)

Event Time Altitude Azimuth Distance (km) Brightness Sun altitude
Rises 18:44:30 0° 208° (SSW) 2,745 6.5 -13.8°
Reaches altitude 10° 18:46:47 10° 216° (SW) 1,853 5.7 -14.2°
Maximum altitude 18:50:36 38° 286° (WNW) 871 4.5 -14.8°
Drops below altitude 10° 18:54:27 10° 355° (N) 1,863 5.8 -15.4°
Sets 18:56:46 0° 4° (N) 2,761 6.6 -15.7°
